Time,TemperatureF,DewpointF,PressureIn,WindDirection,WindDirectionDegrees,WindSpeedMPH,WindSpeedGustMPH,Humidity,HourlyPrecipIn,Conditions,Clouds,dailyrainin,SoftwareType,DateUTC
2013-09-03 00:06:00,74.7,72.0,29.89,WSW,243,0.0,1.0,90,0.00,,,0.00,weatherlink.com 1.10,2013-09-03 04:06:00,
2013-09-03 00:36:00,74.0,71.0,29.89,NE,50,0.0,1.0,89,0.00,,,0.00,weatherlink.com 1.10,2013-09-03 04:36:00,
2013-09-03 00:51:00,74.0,71.0,29.89,NE,44,0.0,1.0,89,0.00,,,0.00,weatherlink.com 1.10,2013-09-03 04:51:00,
2013-09-03 01:06:00,73.7,70.0,29.89,NNW,328,0.0,1.0,89,0.00,,,0.00,weatherlink.com 1.10,2013-09-03 05:06:00,
2013-09-03 01:21:00,73.4,71.0,29.89,SW,216,0.0,2.0,91,0.00,,,0.00,weatherlink.com 1.10,2013-09-03 05:21:00,
2013-09-03 01:36:00,73.1,70.0,29.88,West,266,0.0,0.0,91,0.00,,,0.00,weatherlink.com 1.10,2013-09-03 05:36:00,
2013-09-03 01:51:00,72.8,70.0,29.88,West,266,0.0,0.0,91,0.00,,,0.00,weatherlink.com 1.10,2013-09-03 05:51:00,
2013-09-03 02:06:00,72.6,70.0,29.88,West,266,0.0,0.0,91,0.00,,,0.00,weatherlink.com 1.10,2013-09-03 06:06:00,
2013-09-03 02:21:00,72.6,70.0,29.89,West,266,0.0,0.0,92,0.00,,,0.00,weatherlink.com 1.10,2013-09-03 06:21:00,
2013-09-03 02:36:00,73.5,71.0,29.88,WSW,254,0.0,1.0,93,0.00,,,0.00,weatherlink.com 1.10,2013-09-03 06:36:00,
2013-09-03 02:51:00,73.9,72.0,29.88,NW,312,0.0,1.0,93,0.00,,,0.00,weatherlink.com 1.10,2013-09-03 06:51:00,
2013-09-03 03:06:00,73.8,71.0,29.87,SSE,157,0.0,1.0,92,0.00,,,0.00,weatherlink.com 1.10,2013-09-03 07:06:00,
2013-09-03 03:21:00,73.7,72.0,29.87,SSE,157,0.0,0.0,93,0.00,,,0.00,weatherlink.com 1.10,2013-09-03 07:21:00,
2013-09-03 03:36:00,73.5,71.0,29.87,SSE,156,0.0,0.0,93,0.00,,,0.00,weatherlink.com 1.10,2013-09-03 07:36:00,
2013-09-03 03:51:00,73.4,72.0,29.88,SSW,207,0.0,1.0,94,0.00,,,0.00,weatherlink.com 1.10,2013-09-03 07:51:00,
2013-09-03 04:06:00,73.4,72.0,29.87,South,175,0.0,3.0,95,0.00,,,0.00,weatherlink.com 1.10,2013-09-03 08:06:00,
2013-09-03 04:21:00,73.5,72.0,29.88,South,174,0.0,1.0,95,0.00,,,0.00,weatherlink.com 1.10,2013-09-03 08:21:00,
2013-09-03 04:36:00,73.4,72.0,29.88,SW,230,0.0,2.0,95,0.00,,,0.00,weatherlink.com 1.10,2013-09-03 08:36:00,
2013-09-03 04:52:00,73.3,72.0,29.87,SW,231,0.0,1.0,95,0.00,,,0.00,weatherlink.com 1.10,2013-09-03 08:52:00,
2013-09-03 05:07:00,73.2,72.0,29.87,SW,231,0.0,1.0,96,0.00,,,0.00,weatherlink.com 1.10,2013-09-03 09:07:00,
2013-09-03 05:22:00,72.9,72.0,29.88,South,191,0.0,1.0,96,0.00,,,0.00,weatherlink.com 1.10,2013-09-03 09:22:00,
2013-09-03 05:37:00,72.7,72.0,29.87,South,191,0.0,1.0,96,0.00,,,0.00,weatherlink.com 1.10,2013-09-03 09:37:00,
2013-09-03 05:52:00,72.6,71.0,29.88,South,191,0.0,0.0,96,0.00,,,0.00,weatherlink.com 1.10,2013-09-03 09:52:00,
2013-09-03 06:07:00,72.5,71.0,29.88,South,191,0.0,1.0,96,0.00,,,0.00,weatherlink.com 1.10,2013-09-03 10:07:00,
2013-09-03 06:22:00,72.4,71.0,29.88,South,191,0.0,1.0,96,0.00,,,0.00,weatherlink.com 1.10,2013-09-03 10:22:00,
2013-09-03 06:37:00,72.4,71.0,29.89,West,269,0.0,1.0,96,0.00,,,0.00,weatherlink.com 1.10,2013-09-03 10:37:00,
2013-09-03 06:52:00,72.6,71.0,29.89,West,269,1.0,1.0,96,0.00,,,0.00,weatherlink.com 1.10,2013-09-03 10:52:00,
2013-09-03 07:07:00,72.6,71.0,29.90,SSW,195,0.0,1.0,96,0.00,,,0.00,weatherlink.com 1.10,2013-09-03 11:07:00,
2013-09-03 07:22:00,72.8,72.0,29.91,SW,228,0.0,1.0,96,0.00,,,0.00,weatherlink.com 1.10,2013-09-03 11:22:00,
2013-09-03 07:37:00,73.1,72.0,29.91,SW,226,0.0,1.0,96,0.00,,,0.00,weatherlink.com 1.10,2013-09-03 11:37:00,
2013-09-03 07:52:00,74.0,73.0,29.91,SSE,155,0.0,1.0,95,0.00,,,0.00,weatherlink.com 1.10,2013-09-03 11:52:00,
2013-09-03 08:07:00,74.9,73.0,29.91,SW,228,0.0,1.0,93,0.00,,,0.00,weatherlink.com 1.10,2013-09-03 12:07:00,
2013-09-03 08:22:00,74.9,73.0,29.91,South,191,0.0,1.0,93,0.00,,,0.00,weatherlink.com 1.10,2013-09-03 12:22:00,
2013-09-03 08:37:00,75.9,74.0,29.92,SSE,150,0.0,1.0,92,0.00,,,0.00,weatherlink.com 1.10,2013-09-03 12:37:00,
2013-09-03 08:52:00,77.4,74.0,29.92,ENE,57,1.0,3.0,90,0.00,,,0.00,weatherlink.com 1.10,2013-09-03 12:52:00,
2013-09-03 09:07:00,78.3,75.0,29.92,SSW,212,0.0,1.0,88,0.00,,,0.00,weatherlink.com 1.10,2013-09-03 13:07:00,
2013-09-03 09:22:00,78.3,74.0,29.93,SW,219,0.0,1.0,87,0.00,,,0.00,weatherlink.com 1.10,2013-09-03 13:22:00,
2013-09-03 09:37:00,78.1,74.0,29.93,WSW,255,0.0,1.0,88,0.00,,,0.00,weatherlink.com 1.10,2013-09-03 13:37:00,
2013-09-03 09:52:00,78.8,75.0,29.93,South,190,0.0,2.0,88,0.00,,,0.00,weatherlink.com 1.10,2013-09-03 13:52:00,
2013-09-03 10:07:00,79.9,75.0,29.93,SE,135,1.0,1.0,85,0.00,,,0.00,weatherlink.com 1.10,2013-09-03 14:07:00,
2013-09-03 10:22:00,81.1,76.0,29.93,SSW,212,2.0,2.0,83,0.00,,,0.00,weatherlink.com 1.10,2013-09-03 14:22:00,
2013-09-03 10:37:00,82.4,75.0,29.93,WNW,294,1.0,2.0,79,0.00,,,0.00,weatherlink.com 1.10,2013-09-03 14:37:00,
2013-09-03 10:52:00,82.3,76.0,29.93,East,92,1.0,2.0,80,0.00,,,0.00,weatherlink.com 1.10,2013-09-03 14:52:00,
2013-09-03 11:07:00,82.8,75.0,29.93,West,274,1.0,4.0,77,0.00,,,0.00,weatherlink.com 1.10,2013-09-03 15:07:00,
2013-09-03 11:22:00,84.7,76.0,29.92,SSW,207,0.0,2.0,76,0.00,,,0.00,weatherlink.com 1.10,2013-09-03 15:22:00,
2013-09-03 11:37:00,86.1,77.0,29.92,NNW,328,1.0,5.0,73,0.00,,,0.00,weatherlink.com 1.10,2013-09-03 15:37:00,
2013-09-03 11:52:00,87.7,77.0,29.91,SSW,211,0.0,3.0,71,0.00,,,0.00,weatherlink.com 1.10,2013-09-03 15:52:00,
2013-09-03 12:07:00,88.7,77.0,29.91,SW,235,1.0,5.0,68,0.00,,,0.00,weatherlink.com 1.10,2013-09-03 16:07:00,
2013-09-03 12:22:00,89.3,77.0,29.90,West,272,1.0,9.0,66,0.00,,,0.00,weatherlink.com 1.10,2013-09-03 16:22:00,
2013-09-03 12:37:00,89.8,76.0,29.89,East,81,1.0,6.0,63,0.00,,,0.00,weatherlink.com 1.10,2013-09-03 16:37:00,
2013-09-03 12:52:00,90.3,76.0,29.89,WNW,297,1.0,5.0,63,0.00,,,0.00,weatherlink.com 1.10,2013-09-03 16:52:00,
2013-09-03 13:08:00,90.3,76.0,29.88,SSE,156,1.0,4.0,63,0.00,,,0.00,weatherlink.com 1.10,2013-09-03 17:08:00,
2013-09-03 13:23:00,91.1,76.0,29.88,SSE,160,1.0,6.0,61,0.00,,,0.00,weatherlink.com 1.10,2013-09-03 17:23:00,
2013-09-03 13:38:00,92.3,76.0,29.88,SW,218,1.0,5.0,60,0.00,,,0.00,weatherlink.com 1.10,2013-09-03 17:38:00,
2013-09-03 13:53:00,91.5,76.0,29.88,ESE,103,1.0,6.0,61,0.00,,,0.00,weatherlink.com 1.10,2013-09-03 17:53:00,
2013-09-03 14:08:00,91.3,76.0,29.87,WSW,249,1.0,5.0,61,0.00,,,0.00,weatherlink.com 1.10,2013-09-03 18:08:00,
2013-09-03 14:23:00,92.3,76.0,29.87,WSW,258,2.0,6.0,59,0.00,,,0.00,weatherlink.com 1.10,2013-09-03 18:23:00,
2013-09-03 14:38:00,92.3,76.0,29.86,WNW,290,2.0,4.0,60,0.00,,,0.00,weatherlink.com 1.10,2013-09-03 18:38:00,
2013-09-03 14:53:00,92.6,76.0,29.86,WNW,290,3.0,4.0,59,0.00,,,0.00,weatherlink.com 1.10,2013-09-03 18:53:00,
2013-09-03 15:08:00,92.3,76.0,29.85,SSW,204,0.0,6.0,59,0.00,,,0.00,weatherlink.com 1.10,2013-09-03 19:08:00,
2013-09-03 15:23:00,91.9,76.0,29.85,WNW,290,2.0,4.0,59,0.00,,,0.00,weatherlink.com 1.10,2013-09-03 19:23:00,
2013-09-03 15:38:00,91.1,76.0,29.85,WSW,242,1.0,7.0,61,0.00,,,0.00,weatherlink.com 1.10,2013-09-03 19:38:00,
2013-09-03 15:53:00,90.5,76.0,29.85,WSW,245,1.0,5.0,62,0.00,,,0.00,weatherlink.com 1.10,2013-09-03 19:53:00,
2013-09-03 16:08:00,83.1,69.0,29.88,NE,47,3.0,12.0,62,0.00,,,0.00,weatherlink.com 1.10,2013-09-03 20:08:00,
2013-09-03 16:23:00,77.4,68.0,29.86,NW,314,1.0,6.0,73,0.00,,,0.00,weatherlink.com 1.10,2013-09-03 20:23:00,
2013-09-03 16:38:00,77.0,70.0,29.84,NW,315,1.0,4.0,79,0.03,,,0.03,weatherlink.com 1.10,2013-09-03 20:38:00,
2013-09-03 16:53:00,76.5,74.0,29.84,SW,235,1.0,2.0,90,0.07,,,0.07,weatherlink.com 1.10,2013-09-03 20:53:00,
2013-09-03 17:08:00,78.7,76.0,29.86,South,187,0.0,1.0,90,0.07,,,0.07,weatherlink.com 1.10,2013-09-03 21:08:00,
2013-09-03 17:23:00,77.7,73.0,29.88,SW,221,1.0,4.0,86,0.07,,,0.07,weatherlink.com 1.10,2013-09-03 21:23:00,
2013-09-03 17:38:00,78.0,74.0,29.87,East,79,0.0,2.0,86,0.04,,,0.07,weatherlink.com 1.10,2013-09-03 21:38:00,
2013-09-03 17:53:00,78.5,73.0,29.87,East,97,0.0,3.0,84,0.00,,,0.07,weatherlink.com 1.10,2013-09-03 21:53:00,
2013-09-03 18:08:00,79.0,74.0,29.88,East,84,0.0,2.0,85,0.00,,,0.07,weatherlink.com 1.10,2013-09-03 22:08:00,
2013-09-03 18:23:00,78.9,74.0,29.88,East,85,0.0,1.0,84,0.00,,,0.07,weatherlink.com 1.10,2013-09-03 22:23:00,
2013-09-03 18:38:00,78.6,75.0,29.88,WSW,238,0.0,1.0,88,0.00,,,0.07,weatherlink.com 1.10,2013-09-03 22:38:00,
2013-09-03 18:53:00,78.0,75.0,29.88,ESE,108,1.0,2.0,90,0.00,,,0.07,weatherlink.com 1.10,2013-09-03 22:53:00,
2013-09-03 19:08:00,77.4,75.0,29.87,East,84,0.0,1.0,91,0.00,,,0.07,weatherlink.com 1.10,2013-09-03 23:08:00,
2013-09-03 19:23:00,76.8,74.0,29.88,East,84,0.0,1.0,92,0.00,,,0.07,weatherlink.com 1.10,2013-09-03 23:23:00,
2013-09-03 19:38:00,76.2,74.0,29.89,NE,46,0.0,1.0,93,0.00,,,0.07,weatherlink.com 1.10,2013-09-03 23:38:00,
2013-09-03 19:53:00,75.8,74.0,29.90,NE,46,0.0,1.0,93,0.00,,,0.07,weatherlink.com 1.10,2013-09-03 23:53:00,
2013-09-03 20:08:00,76.1,74.0,29.91,ESE,108,0.0,1.0,94,0.00,,,0.07,weatherlink.com 1.10,2013-09-04 00:08:00,
2013-09-03 20:23:00,75.8,74.0,29.92,ESE,108,0.0,0.0,95,0.00,,,0.07,weatherlink.com 1.10,2013-09-04 00:23:00,
2013-09-03 20:38:00,75.8,74.0,29.92,ESE,108,0.0,1.0,95,0.00,,,0.07,weatherlink.com 1.10,2013-09-04 00:38:00,
2013-09-03 20:53:00,76.3,75.0,29.92,ESE,109,0.0,0.0,96,0.00,,,0.07,weatherlink.com 1.10,2013-09-04 00:53:00,
2013-09-03 21:08:00,76.8,76.0,29.92,SE,144,0.0,1.0,96,0.00,,,0.07,weatherlink.com 1.10,2013-09-04 01:08:00,
2013-09-03 21:23:00,77.3,76.0,29.93,SSE,150,0.0,1.0,96,0.00,,,0.07,weatherlink.com 1.10,2013-09-04 01:23:00,
2013-09-03 21:38:00,77.6,76.0,29.93,SSE,151,0.0,1.0,96,0.00,,,0.07,weatherlink.com 1.10,2013-09-04 01:38:00,
2013-09-03 21:53:00,77.6,76.0,29.94,SSE,151,0.0,0.0,96,0.00,,,0.07,weatherlink.com 1.10,2013-09-04 01:53:00,
2013-09-03 22:08:00,77.5,76.0,29.94,South,169,0.0,1.0,95,0.00,,,0.07,weatherlink.com 1.10,2013-09-04 02:08:00,
2013-09-03 22:23:00,77.2,76.0,29.93,NE,44,0.0,2.0,95,0.00,,,0.07,weatherlink.com 1.10,2013-09-04 02:23:00,
2013-09-03 22:38:00,76.8,75.0,29.93,NE,44,0.0,1.0,94,0.00,,,0.07,weatherlink.com 1.10,2013-09-04 02:38:00,
2013-09-03 22:53:00,76.7,75.0,29.94,NE,43,0.0,1.0,95,0.00,,,0.07,weatherlink.com 1.10,2013-09-04 02:53:00,
2013-09-03 23:08:00,76.3,75.0,29.95,NE,44,0.0,1.0,94,0.00,,,0.07,weatherlink.com 1.10,2013-09-04 03:08:00,
2013-09-03 23:23:00,75.6,74.0,29.96,NE,44,0.0,0.0,94,0.00,,,0.07,weatherlink.com 1.10,2013-09-04 03:23:00,
2013-09-03 23:38:00,75.1,73.0,29.97,NE,44,0.0,0.0,94,0.00,,,0.07,weatherlink.com 1.10,2013-09-04 03:38:00,
2013-09-03 23:53:00,74.4,73.0,29.97,NE,44,0.0,1.0,94,0.00,,,0.07,weatherlink.com 1.10,2013-09-04 03:53:00,